Location: Izdebno
(52.6670°N, 16.2170°E)
Time: 11:04:34
(UTC+02:00)

A-11 Canister half - Pass Details

Date: 25 February 2024
Orbit: 1513 x 1686 km, 47.2° (Epoch: 24 April)

Event Time Altitude Azimuth Distance (km) Brightness Sun altitude
Exits shadow 03:40:07 50° 215° (SW) 2,046 9.2 -29.3°
Maximum altitude 03:42:35 61° 167° (SSE) 1,842 9.2 -29.0°
Drops below altitude 10° 03:52:11 10° 91° (E) 3,841 11.9 -27.6°
Sets 03:55:18 0° 88° (E) 4,804 12.7 -27.2°
